#timestamp,LO_Frequency,Hit,StdDev 
1590073215.8,286047001.3,N
1590073265.6,286047001.9,E
1590073275.6,286047000.2,N
1590073295.4,286046998.1,P
1590073315.2,286046999.5,N
1590073335.1,286047001.1,N
1590073336.0,286047001.1,N
1590073355.8,286046998.1,N
1590073375.7,286046999.9,N
1590073395.5,286047000.7,N
1590073415.3,286047000.0,N
1590073435.2,286046998.6,N
1590073455.0,286046996.9,N
1590073455.9,286046996.9,N
1590073475.7,286046997.3,N
1590073495.6,286046995.1,Y
1590073515.4,286046996.0,P
1590073535.3,286046996.9,N
1590073555.1,286046999.6,N
1590073556.0,286046999.6,N
1590073575.8,286046998.2,N
1590073595.7,286047002.5,N
1590073615.5,286047002.7,N
1590073635.3,286047003.2,N
1590073655.2,286047003.5,N
1590073675.0,286047003.6,N
1590073675.9,286047003.6,N
1590073695.8,286047002.9,N
1590073715.6,286047003.0,N
1590073735.4,286047005.1,N
1590073755.3,286047006.6,N
1590073775.1,286047008.5,N
1590073795.8,286047007.6,N
1590073815.7,286047002.4,N
1590073835.5,286046999.9,N
1590073855.4,286047000.5,N
1590073875.2,286046998.3,N
1590073895.0,286046998.8,N
1590073895.9,286046998.8,N
1590073915.8,286046999.1,N
1590073935.6,286046996.7,N
1590073955.5,286046999.2,N
1590073975.3,286046999.5,N
1590073995.1,286046999.4,N
1590074015.9,286046996.8,N
1590074035.7,286046996.6,N
1590074055.5,286046997.2,N
1590074075.4,286046997.0,N
1590074095.2,286046997.6,N
1590074115.0,286046998.0,N
1590074116.0,286046998.0,N
1590074135.8,286046997.0,N
1590074155.6,286046995.0,N
1590074175.5,286046995.4,N
1590074195.3,286046999.2,N
1590074215.1,286046996.6,N
1590074235.9,286046997.6,N
1590074255.7,286046998.0,N
1590074275.5,286046998.0,N
1590074295.4,286046996.4,N
1590074315.2,286046995.1,N
1590074335.1,286046995.7,N
1590074336.0,286046995.7,N
1590074355.8,286046994.4,Y
1590074375.6,286046995.6,P
1590074395.5,286046993.3,P
1590074415.3,286046995.3,N
1590074435.1,286046997.5,N
1590074455.9,286046998.2,N
1590074475.7,286046999.6,N
1590074495.6,286046998.0,N
1590074515.4,286046995.4,N
1590074535.2,286046994.9,N
1590074555.1,286046995.0,N
1590074556.0,286046995.0,N
1590074575.8,286046997.9,N
1590074595.6,286046995.3,N
1590074615.5,286046998.0,N
1590074635.3,286046997.6,N
1590074655.2,286046998.9,N
1590074675.9,286047000.6,N
1590074695.7,286047002.6,N
1590074715.6,286047000.2,N
1590074735.4,286047002.4,N
1590074755.2,286047002.0,N
1590074775.1,286047000.0,N
1590074776.0,286047000.0,N
1590074795.8,286046999.8,N
1590074815.7,286047002.5,N
1590074835.5,286047000.3,N
1590074855.3,286046999.9,N
1590074875.2,286047000.6,N
1590074895.0,286047000.8,N
1590074895.9,286047000.8,N
1590074915.8,286046999.6,N
1590074935.6,286046996.7,N
1590074955.4,286046999.6,N
1590074975.3,286046998.8,N
1590074995.1,286047001.1,N
1590075015.8,286046999.3,N
1590075035.7,286046996.8,N
1590075055.5,286046997.2,N
1590075075.4,286046997.9,N
1590075095.2,286046997.5,N
1590075115.0,286046993.4,Y
1590075115.9,286046993.4,P
1590075135.8,286046995.0,N
1590075155.6,286046995.3,N
1590075175.4,286046997.4,N
1590075195.3,286046997.5,N
1590075215.1,286046996.7,N
1590075235.9,286047001.0,N
1590075255.7,286047000.2,N
1590075275.5,286047001.3,N
1590075295.4,286047004.2,N
1590075315.2,286047002.8,N
1590075335.0,286047001.4,N
1590075336.0,286047001.4,N
1590075355.8,286047002.4,N
1590075375.6,286047004.4,N
1590075395.5,286047001.5,N
1590075415.3,286047004.4,N
1590075435.1,286047001.6,N
1590075455.9,286047002.1,N
1590075475.7,286047000.1,N
1590075495.6,286046999.8,N
1590075515.4,286046999.8,N
1590075535.2,286047002.1,N
1590075555.1,286047003.0,N
1590075556.0,286047003.0,N
1590075575.8,286047003.5,N
1590075595.6,286047005.9,N
1590075615.5,286047003.9,N
1590075635.3,286047002.4,N
1590075655.1,286047002.5,N
1590075675.9,286047002.2,N
1590075695.7,286046999.8,N
1590075715.6,286047000.1,N
1590075735.4,286047004.1,N
1590075755.2,286047003.9,N
1590075775.1,286047002.4,N
1590075776.0,286047002.4,N
1590075795.8,286047002.8,N
1590075815.7,286047000.4,N
1590075835.5,286046999.8,N
1590075855.3,286047000.6,N
1590075875.2,286046998.5,N
1590075895.9,286046998.2,N
1590075915.7,286046999.2,N
1590075935.6,286046999.1,N
1590075955.4,286046999.1,N
1590075975.2,286046998.3,N
1590075995.1,286046998.6,N
1590075996.0,286046998.6,N
1590076015.8,286047000.9,N
1590076035.7,286047000.5,N
1590076055.5,286047002.6,N
1590076075.3,286046999.8,N
1590076095.2,286047001.0,N
1590076115.0,286046998.9,N
1590076115.9,286046998.9,N
1590076135.8,286046996.5,N
1590076155.6,286046997.2,N
1590076175.4,286046995.0,N
1590076195.3,286046997.7,N
1590076215.1,286046997.1,N
1590076235.8,286046998.7,N
1590076255.7,286047000.6,N
1590076275.5,286047002.6,N
1590076295.4,286047002.7,N
1590076315.2,286047000.1,N
1590076335.0,286047002.7,N
1590076335.9,286047002.7,N
1590076355.8,286047002.7,N
1590076375.6,286046999.2,N
1590076395.4,286046998.7,N
1590076415.3,286046995.0,N
1590076435.1,286046995.3,N
1590076455.9,286046997.8,N
1590076475.7,286046996.5,N
1590076495.5,286046999.0,N
1590076515.4,286047000.7,N
1590076535.2,286047002.7,N
1590076555.0,286047000.3,N
1590076555.9,286047000.3,N
1590076575.8,286046998.1,N
1590076595.6,286046996.7,N
1590076615.5,286046999.5,N
1590076635.3,286046997.6,N
1590076655.1,286046995.3,N
1590076675.9,286046995.1,N
1590076695.7,286046997.5,N
1590076715.5,286046997.8,N
1590076735.4,286046999.6,N
1590076755.2,286046997.8,N
1590076775.1,286046997.7,N
1590076776.0,286046997.7,N
1590076795.8,286046995.8,N
